Content
SEND FEEDBACK

Daily
Averages
Monthly
Summary
United States of America

SWIFT, TEXAS


Home > North America > United States > Texas
Elevation: 350 feet     Latitude: 31 36N     Longitude: 094 35W

WEATHER
 
SELECT A DAY
Number of Records: 441,980;   Date Range: 1/1/95 - 7/7/14
 
SHARE

PRINT THIS DATA

[ ← Previous Day ]
WEATHER ALMANAC - FEBRUARY 13, 2013
[ Next Day → ]
[ °C ]   °F
Weather ElementAverageHighLow
Temperature44.5 °F53.6 °F (12:55 pm)30.2 °F (11:15 pm)
Dewpoint34.9 °F41 °F (12:35 am)26.6 °F (11:15 pm)
Humidity70 %87 % (8:15 pm)54 % (11:55 am)
Barometer30.07 in30.14 in (9:55 am)29.96 in (12:35 am)
Wind Speed7.6 mph15 mph (2:55 am)
Wind Gust19.6 mph (2:55 am)
Weather ElementAverage
Visibility9.9 mi
Wind DirectionWSW (244.4 °)

Weather ElementTotal
Precipitation---
Heating Degree Days23.1 (Base 65)
Averaged from 71 records on February 13, 2013
WEATHER CONDITIONS BREAKOUT
WIND DIRECTION BREAKOUT
WEATHER BY HOUR - FEBRUARY 13, 2013
[ °C ]   °F
Local TimeTemperatureDewpointHumidityBarometerVisibilityWind DirectionWind SpeedGust SpeedPrecipitationEventsConditions
12:35 AM46.4 °F41.0 °F81 %29.96 in10.0 miNW (310°)9.2 mphMostly Cloudy
12:55 AM46.4 °F41.0 °F81 %29.96 in10.0 miNW (320°)12.7 mphOvercast
1:15 AM46.4 °F41.0 °F81 %29.96 in10.0 miNW (320°)11.5 mphMostly Cloudy
1:35 AM46.4 °F39.2 °F76 %29.98 in10.0 miWNW (290°)10.4 mphPartly Cloudy
1:55 AM46.4 °F39.2 °F76 %29.99 in10.0 miNW (310°)9.2 mphMostly Cloudy
2:15 AM46.4 °F39.2 °F76 %29.99 in10.0 miNW (320°)10.4 mphOvercast
2:35 AM46.4 °F37.4 °F71 %30.01 in10.0 miWNW (300°)11.5 mph17.3 mphScattered Clouds
2:55 AM46.4 °F37.4 °F71 %30.00 in10.0 miNNW (330°)15.0 mph19.6 mphMostly Cloudy
3:15 AM46.4 °F37.4 °F71 %30.01 in10.0 miNW (320°)8.1 mphOvercast
3:35 AM46.4 °F37.4 °F71 %30.02 in10.0 miNW (320°)8.1 mphOvercast
3:55 AM46.4 °F37.4 °F71 %30.03 in10.0 miWNW (290°)11.5 mphOvercast
4:15 AM46.4 °F37.4 °F71 %30.04 in10.0 miNW (320°)13.8 mph18.4 mphOvercast
4:35 AM46.4 °F35.6 °F66 %30.04 in10.0 miNNW (330°)11.5 mph17.3 mphOvercast
4:55 AM46.4 °F35.6 °F66 %30.03 in10.0 miNW (320°)11.5 mphOvercast
5:15 AM44.6 °F33.8 °F66 %30.03 in10.0 miNNW (330°)9.2 mphScattered Clouds
5:35 AM42.8 °F35.6 °F76 %30.04 in10.0 miNNW (330°)6.9 mphScattered Clouds
5:55 AM42.8 °F35.6 °F76 %30.04 in10.0 miNW (320°)11.5 mph16.1 mphScattered Clouds
6:15 AM42.8 °F33.8 °F70 %30.06 in10.0 miNW (310°)9.2 mphClear
6:35 AM42.8 °F35.6 °F76 %30.06 in10.0 miNNW (330°)9.2 mphMostly Cloudy
6:55 AM42.8 °F35.6 °F76 %30.07 in10.0 miNW (310°)8.1 mphScattered Clouds
7:15 AM42.8 °F35.6 °F76 %30.08 in10.0 miNW (310°)12.7 mph17.3 mphClear
7:35 AM42.8 °F33.8 °F70 %30.09 in10.0 miNW (320°)12.7 mphScattered Clouds
7:55 AM42.8 °F35.6 °F76 %30.10 in10.0 miNW (320°)9.2 mphMostly Cloudy
8:15 AM42.8 °F33.8 °F70 %30.11 in10.0 miNNW (330°)10.4 mphOvercast
8:35 AM44.6 °F33.8 °F66 %30.12 in10.0 miNNW (330°)11.5 mphOvercast
8:55 AM44.6 °F33.8 °F66 %30.12 in10.0 miNorth (350°)13.8 mph18.4 mphOvercast
9:15 AM44.6 °F33.8 °F66 %30.13 in10.0 miNorth (350°)10.4 mph17.3 mphOvercast
9:35 AM44.6 °F33.8 °F66 %30.13 in10.0 miNorth (350°)15.0 mphOvercast
9:55 AM44.6 °F33.8 °F66 %30.14 in10.0 miNorth (350°)12.7 mphOvercast
10:15 AM44.6 °F33.8 °F66 %30.14 in10.0 miNNW (340°)9.2 mphOvercast
10:35 AM46.4 °F35.6 °F66 %30.13 in10.0 miNNW (340°)12.7 mphOvercast
10:55 AM48.2 °F37.4 °F66 %30.13 in10.0 miNNW (330°)11.5 mphMostly Cloudy
11:15 AM48.2 °F35.6 °F62 %30.13 in10.0 miNNW (330°)11.5 mph18.4 mphMostly Cloudy
11:35 AM50.0 °F37.4 °F62 %30.12 in10.0 miNorth (10°)8.1 mphScattered Clouds
11:55 AM51.8 °F35.6 °F54 %30.12 in10.0 miNorth (350°)8.1 mph19.6 mphPartly Cloudy
12:15 PM51.8 °F35.6 °F54 %30.12 in10.0 miNNW (330°)9.2 mph18.4 mphScattered Clouds
12:35 PM51.8 °F35.6 °F54 %30.11 in10.0 miNorth (10°)12.7 mph17.3 mphMostly Cloudy
12:55 PM53.6 °F37.4 °F54 %30.10 in10.0 miNW (320°)10.4 mph16.1 mphMostly Cloudy
1:15 PM51.8 °F35.6 °F54 %30.09 in10.0 miNorth (350°)12.7 mphMostly Cloudy
1:35 PM51.8 °F37.4 °F58 %30.09 in10.0 miNorth (350°)11.5 mph16.1 mphOvercast
1:55 PM50.0 °F35.6 °F58 %30.08 in10.0 miNorth (350°)8.1 mphOvercast
2:15 PM51.8 °F35.6 °F54 %30.08 in10.0 miNW (320°)8.1 mphOvercast
2:35 PM51.8 °F35.6 °F54 %30.07 in10.0 miWNW (300°)8.1 mphMostly Cloudy
2:55 PM53.6 °F37.4 °F54 %30.07 in10.0 miNorth (360°)10.4 mphOvercast
3:15 PM51.8 °F37.4 °F58 %30.07 in10.0 miNNW (330°)11.5 mphMostly Cloudy
3:35 PM51.8 °F37.4 °F58 %30.07 in10.0 miNorth (360°)9.2 mphMostly Cloudy
3:55 PM51.8 °F35.6 °F54 %30.07 in10.0 miNW (310°)6.9 mphPartly Cloudy
4:15 PM51.8 °F35.6 °F54 %30.07 in10.0 miNNW (340°)3.5 mphClear
4:35 PM50.0 °F35.6 °F58 %30.07 in10.0 miNW (310°)8.1 mphScattered Clouds
4:55 PM50.0 °F35.6 °F58 %30.07 in10.0 miNW (310°)8.1 mphMostly Cloudy
5:15 PM50.0 °F35.6 °F58 %30.07 in10.0 miNW (320°)6.9 mphPartly Cloudy
5:35 PM48.2 °F35.6 °F62 %30.07 in10.0 miNNW (330°)6.9 mphClear
5:55 PM46.4 °F35.6 °F66 %30.07 in10.0 miNNW (330°)4.6 mphClear
6:15 PM44.6 °F35.6 °F71 %30.08 in10.0 miNorth (350°)3.5 mphClear
6:35 PM41.0 °F35.6 °F81 %30.08 in10.0 miCalmClear
6:55 PM41.0 °F35.6 °F81 %30.08 in10.0 miCalmClear
7:15 PM39.2 °F33.8 °F81 %30.08 in10.0 miCalmClear
7:35 PM39.2 °F33.8 °F81 %30.08 in10.0 miCalmClear
7:55 PM37.4 °F32.0 °F81 %30.09 in10.0 miCalmClear
8:15 PM37.4 °F33.8 °F87 %30.09 in10.0 miCalmClear
8:35 PM37.4 °F32.0 °F81 %30.10 in10.0 miCalmClear
8:55 PM35.6 °F32.0 °F87 %30.09 in10.0 miCalmClear
9:15 PM35.6 °F30.2 °F81 %30.10 in10.0 miCalmClear
9:35 PM33.8 °F28.4 °F81 %30.10 in10.0 miCalmClear
9:55 PM33.8 °F28.4 °F81 %30.10 in10.0 miCalmClear
10:15 PM33.8 °F28.4 °F81 %30.10 in9.0 miNNW (330°)3.5 mphClear
10:35 PM33.8 °F28.4 °F81 %30.10 in4.0 miCalmClear
10:55 PM32.0 °F28.4 °F87 %30.10 in10.0 miCalmClear
11:15 PM30.2 °F26.6 °F86 %30.10 in10.0 miCalmClear
11:35 PM30.2 °F26.6 °F86 %30.10 in10.0 miCalmClear
11:55 PM30.2 °F26.6 °F86 %30.10 in10.0 miCalmClear
Hourly data recorded from KOCH, located miles away from Swift, Texas







STORIES FROM OUR PARTNERS